FW1298 Weather Reports


Display with metric or nautical units.
time (UTC)temp
F
wind
direction
speed
MPH
gust
MPH
rain 1hr
in
rain 24hr
in
rain mn
in
humidity
%
barometer
mb
20210621131934 78 263 9.0 16.0 0.00 2.25 0.00 89 1015.4
20210621131434 78 285 10.0 20.0 0.00 2.25 0.00 89 1015.3
20210621130935 78 250 9.0 20.0 0.00 2.25 0.00 89 1015.3
20210621130436 78 271 6.0 15.0 0.00 2.25 0.00 89 1015.2
20210621125934 78 284 7.0 15.0 0.00 2.25 0.00 91 1015.1
20210621125434 77 286 9.0 15.0 0.00 2.25 0.00 91 1015.0
20210621124936 77 238 8.0 15.0 0.00 2.25 0.00 91 1014.9
20210621124435 77 277 9.0 19.0 0.00 2.25 0.00 92 1014.9
20210621123934 77 246 10.0 19.0 0.00 2.25 0.00 92 1015.0
20210621123433 77 281 10.0 17.0 0.00 2.25 0.00 92 1015.0
20210621122935 76 230 8.0 17.0 0.00 2.25 0.00 93 1015.2
20210621122434 76 277 7.0 14.0 0.00 2.25 0.00 93 1015.2
20210621121933 76 274 8.0 15.0 0.00 2.25 0.00 93 1015.2
20210621121433 76 289 9.0 16.0 0.00 2.25 0.00 93 1015.1
20210621120932 76 272 8.0 16.0 0.00 2.25 0.00 94 1015.0
20210621120443 76 289 8.0 14.0 0.00 2.25 0.00 93 1014.9
20210621115939 76 289 7.0 15.0 0.00 2.25 0.00 94 1014.8
20210621115441 76 267 8.0 15.0 0.00 2.25 0.00 94 1014.8
20210621114938 76 286 9.0 15.0 0.00 2.25 0.00 94 1014.9
20210621114437 76 237 10.0 15.0 0.00 2.25 0.00 94 1014.8
20210621113938 76 285 10.0 16.0 0.00 2.25 0.00 95 1014.6
20210621113434 75 246 9.0 16.0 0.00 2.25 0.00 95 1014.7
20210621112933 75 281 8.0 16.0 0.00 2.25 0.00 95 1014.6
20210621112429 75 250 8.0 16.0 0.00 2.25 0.00 96 1014.6
20210621111930 75 252 8.0 16.0 0.00 2.25 0.00 95 1014.7
20210621111428 75 265 7.0 14.0 0.00 2.25 0.00 96 1014.6
20210621110925 75 236 8.0 15.0 0.00 2.25 0.00 96 1014.6
20210621110429 75 282 8.0 19.0 0.00 2.25 0.00 96 1014.6
20210621105926 75 262 8.0 19.0 0.00 2.25 0.00 96 1014.5
20210621105424 74 268 8.0 15.0 0.00 2.25 0.00 96 1014.3
20210621104922 74 259 8.0 17.0 0.00 2.25 0.00 96 1014.3
20210621104423 74 235 7.0 17.0 0.00 2.25 0.00 96 1014.2
20210621103919 74 240 8.0 17.0 0.00 2.25 0.00 96 1013.9
20210621103418 74 289 9.0 20.0 0.00 2.25 0.00 96 1013.8
20210621102920 74 256 9.0 20.0 0.00 2.25 0.00 96 1013.9
20210621102419 74 246 9.0 14.0 0.00 2.25 0.00 96 1013.7
20210621101919 74 246 8.0 14.0 0.00 2.25 0.00 96 1013.7
20210621101418 74 268 7.0 13.0 0.00 2.25 0.00 96 1013.5
20210621100919 74 246 7.0 13.0 0.00 2.25 0.00 96 1013.4
20210621100415 74 223 8.0 15.0 0.00 2.25 0.00 96 1013.3
20210621095917 74 243 8.0 15.0 0.00 2.25 0.00 96 1013.2
20210621095415 74 246 7.0 14.0 0.00 2.25 0.00 96 1013.1
20210621094916 74 240 7.0 13.0 0.00 2.25 0.00 96 1013.1
20210621094417 74 251 8.0 14.0 0.00 2.25 0.00 96 1012.9
20210621093916 74 235 8.0 14.0 0.00 2.25 0.00 96 1012.9
20210621093415 74 227 7.0 16.0 0.00 2.25 0.00 96 1012.9
20210621092916 74 259 7.0 16.0 0.00 2.25 0.00 96 1012.8
20210621092415 74 239 7.0 16.0 0.00 2.25 0.00 95 1012.8
20210621091915 74 230 8.0 16.0 0.00 2.25 0.00 95 1012.8
20210621091417 74 254 7.0 14.0 0.00 2.25 0.00 95 1012.7
20210621090917 74 243 7.0 14.0 0.00 2.25 0.00 95 1012.7
20210621090415 74 252 6.0 13.0 0.00 2.25 0.00 95 1012.6
20210621085915 74 241 5.0 11.0 0.00 2.25 0.00 94 1012.6
20210621085415 74 248 5.0 11.0 0.00 2.25 0.00 94 1012.5
20210621084917 74 229 5.0 9.0 0.00 2.25 0.00 94 1012.5
20210621084416 74 232 6.0 9.0 0.00 2.25 0.00 94 1012.5
20210621083916 74 225 5.0 11.0 0.00 2.25 0.00 93 1012.5
20210621083416 74 244 5.0 11.0 0.00 2.25 0.00 93 1012.4
20210621082916 74 232 6.0 12.0 0.00 2.25 0.00 93 1012.4
20210621082416 74 234 6.0 12.0 0.00 2.25 0.00 93 1012.5
20210621081915 74 229 6.0 11.0 0.00 2.25 0.00 92 1012.3
20210621081417 74 242 7.0 13.0 0.00 2.25 0.00 92 1012.3
20210621080915 74 240 7.0 13.0 0.00 2.25 0.00 92 1012.4
20210621080415 74 242 6.0 11.0 0.00 2.25 0.00 92 1012.2
20210621075915 75 219 6.0 11.0 0.00 2.25 0.00 92 1012.2
20210621075413 75 227 6.0 11.0 0.00 2.25 0.00 91 1012.1
20210621074913 75 237 6.0 11.0 0.00 2.25 0.00 91 1012.1
20210621074413 75 223 6.0 15.0 0.00 2.25 0.00 91 1012.1
20210621073915 75 223 6.0 15.0 0.00 2.25 0.00 91 1012.1
20210621073413 75 222 6.0 11.0 0.00 2.25 0.00 91 1012.1
20210621072913 75 211 6.0 16.0 0.00 2.25 0.00 91 1012.1
20210621072422 75 227 6.0 16.0 0.00 2.25 0.00 91 1012.0
20210621071919 75 244 6.0 12.0 0.00 2.25 0.00 91 1011.9
20210621071416 76 264 7.0 12.0 0.00 2.25 0.00 91 1011.9
20210621070912 76 233 7.0 12.0 0.00 2.25 0.00 91 1011.8
20210621070409 76 220 7.0 14.0 0.00 2.25 0.00 91 1011.8
20210621065908 76 224 8.0 14.0 0.00 2.25 0.00 91 1011.8
20210621065410 76 216 9.0 14.0 0.00 2.25 0.00 92 1011.8
20210621064906 76 203 7.0 15.0 0.00 2.25 0.00 92 1011.9
20210621064406 76 246 6.0 15.0 0.00 2.25 0.00 92 1011.8
20210621063903 76 223 7.0 17.0 0.00 2.25 0.00 93 1011.9
20210621063401 76 226 7.0 17.0 0.00 2.25 0.00 93 1011.8
20210621062902 76 244 7.0 14.0 0.00 2.25 0.00 93 1011.8
20210621062402 76 246 7.0 15.0 0.00 2.25 0.00 94 1011.8
20210621061901 76 229 7.0 16.0 0.00 2.25 0.00 94 1011.8
20210621061401 77 203 7.0 16.0 0.00 2.25 0.00 94 1011.8
20210621060903 77 258 8.0 15.0 0.00 2.25 0.00 95 1011.9
20210621060401 77 239 7.0 15.0 0.00 2.25 0.00 95 1011.9
20210621055900 77 243 9.0 18.0 0.00 2.25 0.00 95 1011.8
20210621055358 77 244 10.0 18.0 0.00 2.25 0.00 94 1011.8
20210621054900 77 237 9.0 18.0 0.00 2.25 0.00 95 1011.7
20210621054359 77 234 8.0 16.0 0.00 2.25 0.00 95 1011.8
20210621053859 77 241 9.0 19.0 0.00 2.25 0.00 95 1011.8
20210621053400 77 248 10.0 19.0 0.00 2.25 0.00 95 1011.8
20210621052900 77 217 8.0 19.0 0.00 2.25 0.00 95 1011.8
20210621052359 77 291 8.0 19.0 0.00 2.25 0.00 95 1011.8
20210621051859 77 244 9.0 16.0 0.00 2.25 0.00 95 1011.8
20210621051359 77 231 9.0 16.0 0.00 2.25 0.00 95 1011.7
20210621050900 77 244 10.0 17.0 0.00 2.25 0.00 95 1011.7
20210621050357 77 231 10.0 19.0 0.00 2.25 0.00 95 1011.8
20210621045858 77 232 9.0 19.0 0.00 2.25 0.00 95 1011.9
20210621045356 77 236 9.0 15.0 0.00 2.25 0.00 95 1011.9
20210621044859 77 236 9.0 17.0 0.00 2.25 0.00 95 1011.9
20210621044358 77 225 10.0 17.0 0.00 2.25 0.00 95 1011.9
20210621043856 77 219 9.0 17.0 0.00 2.25 0.00 95 1011.9
20210621043358 77 246 9.0 18.0 0.00 2.25 0.00 95 1012.0
20210621042856 77 207 8.0 18.0 0.00 2.25 0.00 95 1011.9
20210621042358 77 248 9.0 17.0 0.00 2.25 0.00 95 1012.0
20210621041908 77 238 9.0 17.0 0.00 2.25 0.00 95 1012.0
20210621041408 77 242 9.0 17.0 0.00 2.25 0.00 95 1012.1
20210621040908 77 217 9.0 17.0 0.00 2.25 0.00 95 1012.1
20210621040406 77 229 9.0 17.0 0.00 2.25 0.00 95 1012.2
20210621035905 77 235 8.0 13.0 0.00 2.25 2.27 95 1012.2
20210621035405 77 246 8.0 14.0 0.00 2.25 2.27 95 1012.2
20210621034906 77 240 8.0 14.0 0.00 2.25 2.27 95 1012.3
20210621034406 77 234 8.0 15.0 0.00 2.25 2.27 95 1012.2
20210621033905 77 253 8.0 17.0 0.00 2.25 2.27 94 1012.3
20210621033405 77 237 8.0 17.0 0.00 2.25 2.27 95 1012.3
20210621032904 77 213 9.0 16.0 0.00 2.25 2.27 95 1012.2
20210621032405 77 230 8.0 14.0 0.00 2.25 2.27 96 1012.3
20210621031905 76 240 7.0 13.0 0.00 2.25 2.27 96 1012.2
20210621031405 76 252 7.0 13.0 0.00 2.25 2.27 96 1012.4
20210621030905 76 240 6.0 12.0 0.00 2.25 2.27 96 1012.4
20210621030406 76 250 5.0 11.0 0.00 2.25 2.27 96 1012.5
20210621025904 76 242 5.0 10.0 0.00 2.25 2.27 96 1012.4
20210621025406 76 254 5.0 10.0 0.00 2.25 2.27 96 1012.3
20210621024905 76 219 5.0 9.0 0.00 2.25 2.27 96 1012.4
20210621024405 76 235 5.0 11.0 0.00 2.25 2.27 97 1012.3
20210621023905 76 238 6.0 11.0 0.00 2.25 2.27 97 1012.2
20210621023405 76 248 6.0 11.0 0.00 2.25 2.27 97 1012.1
20210621022905 76 254 6.0 10.0 0.00 2.25 2.27 98 1012.0
20210621022404 76 256 6.0 10.0 0.00 2.25 2.27 99 1011.9
20210621021902 75 246 4.0 9.0 0.00 2.25 2.27 99 1011.8
20210621021405 75 265 3.0 8.0 0.01 2.25 2.27 99 1011.7
20210621020902 75 253 3.0 6.0 0.01 2.25 2.27 99 1011.7
20210621020358 75 253 2.0 5.0 0.02 2.25 2.27 99 1011.5
20210621015854 75 252 2.0 5.0 0.05 2.25 2.27 99 1011.5
20210621015354 75 252 2.0 5.0 0.06 2.25 2.27 99 1011.4
20210621014852 75 251 2.0 7.0 0.06 2.25 2.27 99 1011.4
20210621014353 75 242 3.0 7.0 0.06 2.25 2.27 99 1011.4
20210621013851 75 248 4.0 7.0 0.06 2.25 2.27 99 1011.4
20210621013353 75 231 4.0 7.0 0.07 2.25 2.27 98 1011.4
20210621012850 75 257 4.0 7.0 0.10 2.25 2.27 98 1011.5
20210621012349 75 254 3.0 7.0 0.12 2.25 2.27 99 1011.4
20210621011848 75 262 2.0 6.0 0.12 2.25 2.27 98 1011.3
20210621011347 75 265 4.0 10.0 0.11 2.24 2.26 98 1011.4
20210621010847 75 288 6.0 14.0 0.11 2.24 2.26 98 1011.5
20210621010347 75 303 6.0 14.0 0.10 2.23 2.25 98 1011.7
20210621005847 75 304 4.0 10.0 0.07 2.20 2.23 98 1011.5
20210621005343 75 221 3.0 8.0 0.07 2.19 2.21 98 1011.1
20210621004841 75 256 2.0 4.0 0.07 2.19 2.21 98 1011.1
20210621004341 75 18 2.0 7.0 0.07 2.19 2.21 97 1011.0
20210621003840 76 18 4.0 9.0 0.08 2.19 2.21 97 1011.0
20210621003339 76 26 5.0 9.0 0.09 2.18 2.20 97 1011.0
20210621002839 76 316 4.0 9.0 0.07 2.15 2.17 96 1011.3
20210621002337 76 254 6.0 13.0 0.05 2.13 2.15 96 1011.2
20210621001837 76 222 8.0 15.0 0.05 2.13 2.15 96 1011.0
20210621001339 76 223 9.0 15.0 0.05 2.13 2.15 96 1010.8
20210621000838 76 223 8.0 12.0 0.05 2.13 2.15 97 1010.8
20210621000338 76 219 7.0 12.0 0.05 2.13 2.15 97 1010.9
20210620235839 76 237 6.0 12.0 0.05 2.13 2.15 97 1011.1
20210620235338 76 262 6.0 11.0 0.04 2.12 2.14 97 1011.2
20210620234838 76 252 7.0 11.0 0.04 2.12 2.14 96 1010.9
20210620234337 76 213 6.0 13.0 0.04 2.12 2.14 96 1010.9
20210620233836 76 265 7.0 13.0 0.03 2.11 2.13 96 1011.1
20210620233336 76 258 7.0 12.0 0.01 2.09 2.11 96 1011.1
20210620232835 76 255 7.0 12.0 0.00 2.08 2.10 96 1010.8
20210620232344 76 246 8.0 12.0 0.00 2.08 2.10 96 1010.7
20210620231836 76 226 8.0 12.0 0.00 2.08 2.10 97 1010.7
20210620231336 76 230 8.0 15.0 0.00 2.08 2.10 97 1010.7
20210620230848 76 223 7.0 15.0 0.01 2.08 2.10 97 1010.7
20210620230347 76 219 5.0 10.0 0.01 2.08 2.10 98 1010.6
20210620225847 76 229 4.0 8.0 0.01 2.08 2.10 98 1010.7
20210620225346 76 236 5.0 8.0 0.01 2.08 2.10 98 1010.7
20210620224846 76 231 5.0 8.0 0.01 2.08 2.10 98 1010.7
20210620224346 76 252 4.0 8.0 0.01 2.08 2.10 98 1010.6
20210620223844 76 248 4.0 9.0 0.01 2.08 2.10 98 1010.6
20210620223344 76 259 6.0 12.0 0.01 2.08 2.10 98 1010.6
20210620222843 76 214 7.0 15.0 0.01 2.08 2.10 98 1010.6
20210620222343 76 242 6.0 15.0 0.01 2.08 2.10 98 1010.6
20210620221841 76 258 6.0 11.0 0.01 2.08 2.10 97 1010.6
20210620221343 76 261 6.0 15.0 0.01 2.08 2.10 97 1010.6
20210620220837 76 253 7.0 15.0 0.00 2.07 2.09 97 1010.5
20210620220337 76 256 9.0 19.0 0.00 2.07 2.09 96 1010.5
20210620215833 76 232 10.0 19.0 0.00 2.07 2.09 96 1010.6
20210620215336 76 280 10.0 18.0 0.00 2.07 2.09 96 1010.5
20210620214834 77 250 11.0 21.0 0.00 2.07 2.09 95 1010.4
20210620214333 77 243 10.0 21.0 0.00 2.07 2.09 95 1010.4
20210620213833 77 242 10.0 19.0 0.04 2.07 2.09 95 1010.4
20210620213332 77 248 9.0 19.0 0.14 2.07 2.09 96 1010.4
20210620212833 76 245 9.0 16.0 0.20 2.07 2.09 97 1010.4
20210620212332 76 273 8.0 16.0 0.24 2.07 2.09 97 1010.5
20210620211831 76 248 7.0 14.0 0.24 2.07 2.09 98 1010.5
20210620211333 75 267 7.0 12.0 0.37 2.07 2.09 99 1010.5
20210620210831 75 247 7.0 13.0 0.44 2.07 2.09 99 1010.5
20210620210332 75 242 8.0 17.0 0.52 2.07 2.09 99 1010.5
20210620205832 74 251 8.0 17.0 0.54 2.07 2.09 99 1010.6
20210620205331 74 273 7.0 14.0 0.54 2.07 2.09 99 1010.3
20210620204831 74 244 7.0 14.0 0.55 2.07 2.09 99 1010.5
20210620204332 74 263 8.0 19.0 0.56 2.07 2.09 99 1010.5
20210620203831 74 246 8.0 19.0 0.53 2.03 2.05 99 1010.3
20210620203332 74 221 7.0 14.0 0.46 1.93 1.97 99 1010.3
20210620202831 74 269 7.0 15.0 0.42 1.87 1.89 99 1010.5
20210620202332 74 288 10.0 21.0 0.43 1.83 1.85 99 1010.5
20210620201832 74 290 11.0 30.0 0.49 1.83 1.85 98 1010.5
20210620201333 74 263 9.0 30.0 0.63 1.70 1.75 99 1010.5
20210620200831 73 327 6.0 10.0 0.67 1.63 1.65 99 1010.2
20210620200335 73 273 5.0 10.0 0.84 1.55 1.57 99 1010.8
20210620195833 73 268 5.0 13.0 1.04 1.53 1.55 99 1010.5
20210620195331 73 275 6.0 17.0 1.31 1.52 1.54 98 1010.3
20210620194831 73 257 7.0 17.0 1.46 1.52 1.54 98 1010.7
20210620194332 73 261 7.0 16.0 1.49 1.51 1.53 98 1010.7
20210620193831 73 248 7.0 14.0 1.49 1.50 1.52 98 1010.6
20210620193331 73 235 8.0 17.0 1.46 1.47 1.50 98 1010.8
20210620192830 73 248 8.0 17.0 1.45 1.45 1.47 98 1010.9
20210620192332 73 261 11.0 28.0 1.40 1.40 1.43 98 1011.0
20210620191832 73 242 14.0 29.0 1.34 1.34 1.38 97 1011.0
20210620191331 73 289 11.0 29.0 1.07 1.07 1.15 97 1011.0
20210620190831 73 303 11.0 26.0 0.96 0.96 0.99 97 1011.0
20210620190333 73 285 11.0 27.0 0.71 0.71 0.81 96 1010.7
20210620185829 74 257 8.0 27.0 0.49 0.49 0.53 94 1011.0
20210620185333 76 283 9.0 21.0 0.21 0.21 0.24 93 1010.7
20210620184829 76 252 11.0 21.0 0.06 0.06 0.09 91 1010.5
20210620184332 77 240 12.0 23.0 0.02 0.02 0.05 89 1010.4
20210620183828 78 222 16.0 29.0 0.01 0.01 0.04 87 1010.4
20210620183331 79 213 17.0 30.0 0.01 0.01 0.03 85 1010.4
20210620182828 80 196 16.0 30.0 0.00 0.00 0.02 83 1010.3
20210620182334 81 217 15.0 28.0 0.00 0.00 0.02 81 1010.4
20210620181828 82 241 13.0 28.0 0.00 0.00 0.02 78 1010.2
20210620181332 82 272 15.0 26.0 0.00 0.00 0.02 78 1010.5
20210620180829 82 238 17.0 31.0 0.00 0.00 0.02 78 1010.5
20210620180331 82 214 16.0 31.0 0.00 0.00 0.02 77 1010.6
20210620175829 82 202 16.0 37.0 0.00 0.00 0.02 76 1010.6
20210620175333 83 142 16.0 37.0 0.00 0.00 0.02 75 1010.6
20210620174830 83 234 16.0 30.0 0.00 0.00 0.02 75 1010.6
20210620174331 83 209 18.0 7.0 0.00 0.00 0.02 75 1010.7
20210620163655 82 245 17.0 31.0 0.00 0.28 0.02 76 1011.6
20210620163155 82 173 20.0 34.0 0.00 0.28 0.02 76 1011.6
20210620162655 82 233 20.0 37.0 0.00 0.28 0.02 75 1011.4
20210620162156 82 196 16.0 37.0 0.00 0.28 0.02 76 1011.6
20210620161656 82 209 15.0 27.0 0.00 0.28 0.02 78 1011.6
20210620161154 82 229 15.0 28.0 0.00 0.28 0.02 78 1011.8
20210620160653 81 227 14.0 32.0 0.00 0.28 0.02 79 1011.9
20210620160151 81 267 15.0 32.0 0.00 0.28 0.02 79 1012.0
20210620155651 81 197 17.0 32.0 0.00 0.28 0.02 81 1012.1
20210620155150 80 240 17.0 28.0 0.00 0.28 0.02 81 1012.3
20210620154650 80 226 14.0 26.0 0.00 0.28 0.02 81 1012.4
20210620154150 80 238 13.0 26.0 0.00 0.28 0.02 82 1012.4
20210620153649 80 171 13.0 26.0 0.00 0.28 0.02 82 1012.4
20210620153151 80 232 15.0 31.0 0.00 0.28 0.02 83 1012.4
20210620152649 79 219 16.0 31.0 0.00 0.28 0.02 83 1012.4
20210620152150 79 223 15.0 26.0 0.00 0.28 0.02 83 1012.3
20210620151649 79 217 14.0 27.0 0.00 0.28 0.02 84 1012.4
20210620151150 78 228 13.0 27.0 0.00 0.28 0.02 84 1012.4
20210620150649 78 219 12.0 22.0 0.00 0.28 0.02 85 1012.4
20210620150149 78 202 14.0 28.0 0.00 0.28 0.02 85 1012.6
20210620145649 78 214 13.0 28.0 0.00 0.28 0.02 85 1012.6
20210620145150 78 235 13.0 25.0 0.00 0.28 0.02 85 1012.6
20210620144650 78 215 14.0 29.0 0.00 0.28 0.02 84 1012.6
20210620144147 78 212 15.0 29.0 0.00 0.28 0.02 84 1012.6
20210620143648 78 219 16.0 27.0 0.00 0.28 0.02 84 1012.7
20210620143148 79 196 15.0 29.0 0.00 0.28 0.02 84 1012.7
20210620142649 79 180 15.0 29.0 0.00 0.28 0.02 84 1012.7
20210620142149 79 238 15.0 27.0 0.00 0.28 0.02 84 1012.8
20210620141648 80 232 15.0 31.0 0.00 0.28 0.02 85 1012.8
20210620141200 79 212 16.0 31.0 0.00 0.28 0.02 85 1012.8
20210620140658 79 161 15.0 26.0 0.00 0.28 0.02 86 1012.8
20210620140156 79 183 13.0 25.0 0.00 0.28 0.02 87 1013.0
20210620135654 78 226 13.0 32.0 0.00 0.28 0.02 88 1013.0
20210620135154 78 223 13.0 32.0 0.00 0.28 0.02 89 1013.1
20210620134654 78 225 12.0 24.0 0.00 0.28 0.02 89 1013.2
20210620134151 78 212 14.0 29.0 0.00 0.28 0.02 89 1013.2
20210620133649 78 208 14.0 29.0 0.00 0.28 0.02 89 1013.2
20210620133150 78 247 12.0 25.0 0.00 0.28 0.02 90 1012.9
20210620132648 78 195 13.0 25.0 0.00 0.28 0.02 91 1012.9